Location: Gad�tanya
(48.0500°N, 20.8500°E)
Time: 11:50:30
(UTC+00:00)

Cosmos 1666 Rocket - Pass Details

Date: 05 July 2020
Orbit: 603 x 633 km, 82.5° (Epoch: 14 August)

Event Time Altitude Azimuth Distance (km) Brightness Sun altitude
Exits shadow 23:44:12 33° 165° (SSE) 1,056 4.3 -17.9°
Maximum altitude 23:46:03 63° 96° (E) 697 3.8 -17.8°
Drops below altitude 10° 23:50:24 10° 15° (NNE) 1,993 7.5 -17.6°
Sets 23:52:39 0° 13° (NNE) 2,898 8.8 -17.5°
